Home   Weather   Bregenz   Past weeks

Flag for Austria Past Weather in Bregenz, Vorarlberg, Austria — Yesterday and Last 2 Weeks

Now
56 °F

Cool.


Feels Like: 56 °F
Forecast: 47 / 73 °F
Wind: 1 mph from South

Location: Bregenz

Current Time: Sep 25, 2016 at 12:47:53 AM

Latest Report: Sep 25, 2016 at 12:00 AM


Visibility: N/A

Pressure: 30.19 "Hg

Humidity: 94%

Dew Point: 54 °F

Location of BregenzLocation

Past Weather in Bregenz — Graph

°F

Bregenz Temperature Yesterday

Maximum temperature yesterday: 69 °F (at 6:00 PM)
Minimum temperature yesterday: 48 °F (at 7:00 AM)
Average temperature yesterday: 58 °F

High & Low Weather Summary for the Past Weeks

 TemperatureHumidityPressure
High80 °F (Sep 12, 6:00 PM)98% (Sep 24, 9:00 AM)30.33 "Hg (Sep 24, 9:00 AM)
Low48 °F (Sep 24, 7:00 AM)36% (Sep 15, 10:00 AM)29.77 "Hg (Sep 15, 5:00 AM)
Average62 °F79%30.03 "Hg
* Reported Sep 9 11:00 PM — Sep 24 11:00 PM, Bregenz, Weather by CustomWeather, © 2016

Note: Actual official high and low records may vary slightly from our data, if they occured in-between our weather recording intervals... More about our weather records

Advertising

Bregenz Weather History for the Previous 24 Hours

Scroll right to see more
 ConditionsComfort  
Time TempWeatherWind HumidityBarometerVisibility
11:00 PM
Sat, Sep 24
57 °FCool.1 mph91%30.19 "HgN/A
10:00 PM56 °FCool.2 mph92%30.19 "HgN/A
9:00 PM58 °FCool.2 mph91%30.19 "HgN/A
8:00 PM59 °FCool.2 mph88%30.18 "HgN/A
7:00 PM62 °FCool.2 mph83%30.18 "HgN/A
6:00 PM69 °FMild.1 mph61%30.17 "HgN/A
5:00 PM68 °FMild.2 mph63%30.19 "HgN/A
4:00 PM66 °FMild.1 mph67%30.20 "HgN/A
3:00 PM65 °FMild.2 mph71%30.21 "HgN/A
2:00 PM64 °FPassing clouds.2 mph73%30.24 "Hg6 mi
1:00 PM62 °FCool.2 mph73%30.27 "HgN/A
12:00 PM62 °FCool.2 mph76%30.28 "HgN/A
11:00 AM60 °FSunny.1 mph77%30.30 "Hg6 mi
10:00 AM56 °FCool.No wind83%30.30 "HgN/A
9:00 AM51 °FCool.No wind98%30.32 "HgN/A
8:00 AM49 °FSunny.2 mph97%30.33 "Hg4 mi
7:00 AM48 °FPassing clouds.No wind97%30.32 "Hg4 mi
6:00 AM49 °FCool.1 mph96%30.31 "HgN/A
3:00 AM51 °FCool.1 mph96%30.33 "HgN/A
2:00 AM52 °FCool.1 mph96%30.33 "HgN/A
1:00 AM53 °FCool.1 mph94%30.33 "HgN/A
12:00 AM53 °FCool.1 mph93%30.33 "HgN/A
Weather by CustomWeather, © 2016

See weather overviewHow to use our weather pages